CZ-6A DEB

Satellite information

Favourite Embed

Satellite Type and Status

DEBRISIN ORBIT

Key statistics

Satellite CZ-6A DEB at a glance.

Uptime

1029

Days in orbit

Revolutions

≈ 14.0

Per day

Orbit

SSO

Sun Synchronous Orbit

Inclination

99.0

Latest

Satellite identification and parameters

Extended collection of information and parameters for CZ-6A DEB.

Object identification

Identified? True

Debris? True

Object name: CZ-6A DEB

International designator: 2022-151AHF

Object number (NORAD): 56679

Object ID (CCSDS): 56679

Country: PEOPLES REPUBLIC OF CHINA (PRC)

Current information (Y/N): Y

RCS size: SMALL

Orbital parameters

Period: 102.645 minutes

Inclination: 98.957 deg

SMA: 7261.934 km

Apoapsis: 960.161 km

Periapsis: 807.437 km

RAAN: 248.0803 deg

Eccentricy: 0.01051538

Argument of periapsis: 143.7547 deg

Mean anomaly: 217.0803 deg

Mean motion: 14.0289215 rev/day

Mean motion (dot): 0.00001212 rev/day2

B* drag term: 0.00077108017 1/REarth

Two-line elements (TLE)

Creation date: Sept. 4, 2025, 4:29 a.m.

Reference frame: TEME

Reference center: EARTH

Epoch: Sept. 3, 2025, 5:45 p.m. UTC

TLE line 0: 0 CZ-6A DEB

TLE line 1: 1 56679U 22151AHF 25246.73988711 .00001212 00000-0 77108-3 0 9999

TLE line 2: 2 56679 98.9570 248.0803 0105154 143.7547 217.0803 14.02892150120977

Live tracking on map

Real-time ground track for satellite CZ-6A DEB.

In-orbit conjunctions

A list of the most updated potential collisions computed for object CZ-6A DEB.

Target Orbit TCA Probability of collision Miss distance Type
COSMOS 1275 DEB LEO 2025-06-24 05:21:07 0.0001487582 51.0 (m) DEBRIS
SL-16 DEB LEO 2024-11-16 14:23:47 0.0002470916 348.0 (m) DEBRIS

Associated space launch

Chinese satellite reported for atmospheric/ocean/environmental/spatial parameter research purposes, details TBD.

CZ-6A DEB was lifted into orbit during the mission ‘Long March 6A | Yunhai 3’, on board a Long March 6A space rocket.

The launch took place on Nov. 11, 2022, 10:52 p.m. from Launch Complex 9A.

For more information about the launch, click the button.

Launch to space Long March 6A | Yunhai 3
Long March 6A | Yunhai 3

Agency: N/A

Status: Launch Successful

Launch date: Nov. 11, 2022, 10:52 p.m. UTC

Rocket: Long March 6A

Launch pad: Launch Complex 9A

Location: Taiyuan Satellite Launch Center, People's Republic of China

...

Latest news about this satellite

There are no fresh news available about this satellite. Check back as we update our databases every day.


Newsletter sign-up

Weekly statistics, charts and insights to help you stay on top of the space industry.